DW6885 Weather Reports


Display with metric or nautical units.
time (UTC)temp
F
wind
direction
speed
MPH
gust
MPH
rain 1hr
in
rain 24hr
in
rain mn
in
humidity
%
barometer
mb
20170727164407 65 44 0.0 4.0 0.00 0.00 0.00 90 1013.2
20170727164006 66 164 1.0 3.0 0.00 0.00 0.00 88 1013.2
20170727163506 66 208 0.0 3.0 0.00 0.00 0.00 88 1013.2
20170727162713 66 240 0.0 3.0 0.00 0.00 0.00 86 1013.2
20170727161017 66 100 0.0 0.0 0.00 0.00 0.00 87 1013.3
20170727160505 66 165 0.0 3.0 0.00 0.00 0.00 85 1013.4
20170727155405 66 78 1.0 6.0 0.00 0.00 0.00 84 1013.3
20170727155006 67 170 0.0 2.0 0.00 0.00 0.00 84 1013.4
20170727154505 67 133 0.0 2.0 0.00 0.00 0.00 84 1013.4
20170727154005 67 242 0.0 3.0 0.00 0.00 0.00 84 1013.5
20170727153707 66 250 1.0 6.0 0.00 0.00 0.00 84 1013.5
20170727152505 67 41 0.0 5.0 0.00 0.00 0.00 84 1013.6
20170727152010 66 98 1.0 7.0 0.00 0.00 0.00 83 1013.7
20170727152006 67 150 2.0 5.0 0.00 0.00 0.00 83 1013.7
20170727151006 66 161 0.0 3.0 0.00 0.00 0.00 84 1013.8
20170727150505 66 265 1.0 3.0 0.00 0.00 0.00 84 1013.8
20170727150408 66 272 0.0 4.0 0.00 0.00 0.00 84 1013.8
20170727150005 66 175 0.0 3.0 0.00 0.00 0.00 84 1013.8
20170727144720 66 178 0.0 0.0 0.00 0.00 0.00 84 1014.0
20170727144506 66 178 0.0 1.0 0.00 0.00 0.00 84 1014.0
20170727144006 66 12 0.0 1.0 0.00 0.00 0.00 84 1014.0
20170727143505 66 25 0.0 3.0 0.00 0.00 0.00 83 1014.0
20170727143011 65 319 0.0 3.0 0.00 0.00 0.00 84 1014.1
20170727142006 65 162 0.0 3.0 0.00 0.00 0.00 84 1014.1
20170727141405 64 279 0.0 3.0 0.00 0.00 0.00 83 1014.1
20170727141006 65 177 0.0 3.0 0.00 0.00 0.00 83 1014.2
20170727140314 64 232 0.0 0.0 0.00 0.00 0.00 84 1014.3
20170727140005 65 207 0.0 0.0 0.00 0.00 0.00 84 1014.3
20170727135006 64 65 0.0 0.0 0.00 0.00 0.00 85 1014.2
20170727134504 64 5 0.0 0.0 0.00 0.00 0.00 87 1014.3
20170727134014 63 5 0.0 0.0 0.00 0.00 0.00 86 1014.3
20170727133505 63 197 0.0 3.0 0.00 0.00 0.00 85 1014.3
20170727133006 63 170 0.0 3.0 0.00 0.00 0.00 85 1014.3
20170727132410 62 202 0.0 5.0 0.00 0.00 0.00 85 1014.4
20170727130712 62 298 0.0 0.0 0.00 0.00 0.00 87 1014.7
20170727130505 62 174 0.0 0.0 0.00 0.00 0.00 87 1014.7
20170727125013 61 44 0.0 0.0 0.00 0.00 0.00 90 1014.8
20170727125006 62 44 0.0 0.0 0.00 0.00 0.00 89 1014.8
20170727123505 61 159 0.0 0.0 0.00 0.00 0.00 90 1015.0
20170727123413 61 159 0.0 0.0 0.00 0.00 0.00 90 1015.0
20170727122505 61 159 0.0 0.0 0.00 0.00 0.00 91 1015.0
20170727122006 61 159 0.0 0.0 0.00 0.00 0.00 91 1015.1
20170727121705 60 159 0.0 0.0 0.00 0.00 0.00 90 1015.2
20170727121504 61 159 0.0 0.0 0.00 0.00 0.00 90 1015.2
20170727121006 60 159 0.0 0.0 0.00 0.00 0.00 91 1015.1
20170727120505 60 143 0.0 0.0 0.00 0.00 0.00 90 1015.0
20170727120028 60 11 0.0 0.0 0.00 0.00 0.00 91 1014.9
20170727120006 60 11 0.0 0.0 0.00 0.00 0.00 91 1015.0
20170727114504 60 250 0.0 0.0 0.00 0.00 0.00 92 1015.1
20170727114413 59 250 0.0 0.0 0.00 0.00 0.00 92 1015.1
20170727114006 60 250 0.0 0.0 0.00 0.00 0.00 92 1015.1
20170727113006 59 250 0.0 0.0 0.00 0.00 0.00 94 1015.1
20170727112703 59 206 0.0 0.0 0.00 0.00 0.00 94 1015.1
20170727112006 59 206 0.0 0.0 0.00 0.00 0.00 94 1015.2
20170727111014 59 235 0.0 0.0 0.00 0.00 0.00 94 1015.2
20170727110004 59 235 0.0 0.0 0.00 0.00 0.00 93 1015.3
20170727105506 59 202 0.0 0.0 0.00 0.00 0.00 93 1015.3
20170727105410 59 202 0.0 0.0 0.00 0.00 0.00 93 1015.3
20170727105006 59 202 0.0 0.0 0.00 0.00 0.00 93 1015.4
20170727103704 58 202 0.0 0.0 0.00 0.00 0.00 93 1015.3
20170727103505 59 202 0.0 0.0 0.00 0.00 0.00 94 1015.3
20170727103006 59 202 0.0 0.0 0.00 0.00 0.00 94 1015.4
20170727102505 59 202 0.0 0.0 0.00 0.00 0.00 94 1015.5
20170727102016 58 202 0.0 0.0 0.00 0.00 0.00 94 1015.4
20170727102005 59 202 0.0 0.0 0.00 0.00 0.00 94 1015.5
20170727101505 58 246 0.0 0.0 0.00 0.00 0.00 94 1015.6
20170727101006 58 227 0.0 0.0 0.00 0.00 0.00 94 1015.6
20170727100407 58 227 0.0 0.0 0.00 0.00 0.00 95 1015.6
20170727095005 58 159 0.0 0.0 0.00 0.00 0.00 95 1015.9
20170727094707 58 159 0.0 0.0 0.00 0.00 0.00 95 1016.0
20170727094006 58 159 0.0 0.0 0.00 0.00 0.00 95 1016.0
20170727093505 58 159 0.0 0.0 0.00 0.00 0.00 95 1015.9
20170727093010 58 159 0.0 0.0 0.00 0.00 0.00 95 1015.9
20170727093006 58 159 0.0 0.0 0.00 0.00 0.00 95 1015.9
20170727092504 58 159 0.0 0.0 0.00 0.00 0.00 95 1015.9
20170727091505 58 159 0.0 0.0 0.00 0.00 0.00 95 1015.7
20170727091413 58 159 0.0 0.0 0.00 0.00 0.00 95 1015.7
20170727091006 58 159 0.0 0.0 0.00 0.00 0.00 96 1015.9
20170727085719 58 159 0.0 0.0 0.00 0.00 0.00 96 1016.1
20170727084505 59 159 0.0 0.0 0.00 0.00 0.00 96 1016.1
20170727084010 58 159 0.0 0.0 0.00 0.00 0.00 96 1016.1
20170727083505 59 159 0.0 0.0 0.00 0.00 0.00 96 1015.9
20170727082414 58 159 0.0 0.0 0.00 0.00 0.00 96 1015.8
20170727082006 59 159 0.0 0.0 0.00 0.00 0.00 96 1015.7
20170727081505 59 192 0.0 0.0 0.00 0.00 0.00 97 1015.6
20170727080704 58 192 0.0 0.0 0.00 0.00 0.00 97 1015.7
20170727075505 59 192 0.0 0.0 0.00 0.00 0.00 97 1015.9
20170727075010 58 192 0.0 0.0 0.00 0.00 0.00 97 1015.8
20170727075005 59 192 0.0 0.0 0.00 0.00 0.00 97 1015.8
20170727074006 58 288 0.0 0.0 0.00 0.00 0.00 98 1015.8
20170727073410 58 215 0.0 0.0 0.00 0.00 0.00 98 1016.0
20170727073006 58 207 0.0 0.0 0.00 0.00 0.00 98 1016.1
20170727072005 58 209 0.0 0.0 0.00 0.00 0.00 98 1016.3
20170727071704 58 213 0.0 0.0 0.00 0.00 0.00 98 1016.3
20170727071005 58 9 0.0 0.0 0.00 0.00 0.00 98 1016.4
20170727070505 58 9 0.0 0.0 0.00 0.00 0.00 98 1016.5
20170727070005 58 9 0.0 0.0 0.00 0.00 0.00 98 1016.5
20170727065006 58 9 0.0 0.0 0.00 0.00 0.00 98 1016.5
20170727064406 58 9 0.0 0.0 0.00 0.00 0.00 98 1016.5
20170727064006 58 9 0.0 0.0 0.00 0.00 0.00 98 1016.6
20170727063505 58 9 0.0 0.0 0.00 0.00 0.00 98 1016.6
20170727063006 58 9 0.0 0.0 0.00 0.00 0.00 98 1016.6
20170727062705 57 9 0.0 0.0 0.00 0.00 0.00 98 1016.7
20170727062006 57 9 0.0 0.0 0.00 0.00 0.00 98 1016.8
20170727061017 57 9 0.0 0.0 0.00 0.00 0.00 98 1017.0
20170727061005 57 9 0.0 0.0 0.00 0.00 0.00 98 1017.1
20170727060005 57 9 0.0 0.0 0.00 0.00 0.00 97 1017.2
20170727055404 56 9 0.0 0.0 0.00 0.00 0.00 97 1017.1
20170727055006 57 9 0.0 0.0 0.00 0.00 0.00 97 1017.1
20170727054006 57 9 0.0 0.0 0.00 0.00 0.00 97 1017.1
20170727053709 57 9 0.0 0.0 0.00 0.00 0.00 97 1017.0
20170727053505 57 9 0.0 0.0 0.00 0.00 0.00 97 1017.0
20170727052505 57 9 0.0 0.0 0.00 0.00 0.00 98 1017.5
20170727052002 57 9 0.0 0.0 0.00 0.00 0.00 98 1017.5
20170727051504 57 9 0.0 1.0 0.00 0.00 0.00 97 1017.5
20170727051005 57 9 0.0 1.0 0.00 0.00 0.00 97 1017.6
20170727050506 56 9 0.0 0.0 0.00 0.00 0.00 97 1017.5
20170727050402 56 9 0.0 0.0 0.00 0.00 0.00 97 1017.5
20170727045505 56 9 0.0 0.0 0.00 0.00 0.00 97 1017.6
20170727044704 56 9 0.0 0.0 0.00 0.00 0.00 97 1017.6
20170727044006 56 9 0.0 0.0 0.00 0.00 0.00 97 1017.7
20170727043505 56 9 0.0 0.0 0.00 0.00 0.00 97 1017.8
20170727043015 56 9 0.0 0.0 0.00 0.00 0.00 97 1017.8
20170727041402 56 9 0.0 0.0 0.00 0.00 0.00 97 1018.1
20170727041005 56 9 0.0 0.0 0.00 0.00 0.00 96 1018.1
20170727040505 56 9 0.0 0.0 0.00 0.00 0.00 96 1018.1
20170727035716 56 9 0.0 0.0 0.00 0.00 0.00 96 1018.2
20170727035504 56 9 0.0 0.0 0.00 0.00 0.00 96 1018.2
20170727034023 56 9 0.0 0.0 0.00 0.00 0.00 96 1018.3
20170727033504 57 9 0.0 0.0 0.00 0.00 0.00 96 1018.3
20170727033005 57 9 0.0 0.0 0.00 0.00 0.00 96 1018.4
20170727032505 57 9 0.0 0.0 0.00 0.00 0.00 96 1018.4
20170727032403 56 9 0.0 0.0 0.00 0.00 0.00 95 1018.4
20170727032006 57 9 0.0 0.0 0.00 0.00 0.00 95 1018.4
20170727031505 57 9 0.0 0.0 0.00 0.00 0.00 95 1018.4
20170727030711 57 9 0.0 0.0 0.00 0.00 0.00 95 1018.4
20170727030505 57 9 0.0 0.0 0.00 0.00 0.00 95 1018.5
20170727025505 58 9 0.0 0.0 0.00 0.00 0.00 95 1018.6
20170727025014 57 9 0.0 0.0 0.00 0.00 0.00 95 1018.6
20170727025006 58 9 0.0 0.0 0.00 0.00 0.00 95 1018.6
20170727024505 58 9 0.0 0.0 0.00 0.00 0.00 95 1018.6
20170727023305 58 9 0.0 0.0 0.00 0.00 0.00 95 1018.6
20170727022504 58 9 0.0 0.0 0.00 0.00 0.00 95 1018.7
20170727022005 59 9 0.0 0.0 0.00 0.00 0.00 94 1018.6
20170727021713 58 9 0.0 0.0 0.00 0.00 0.00 94 1018.6
20170727020013 59 9 0.0 0.0 0.00 0.00 0.00 94 1018.8
20170727014505 60 9 0.0 0.0 0.00 0.00 0.00 93 1019.0
20170727014303 59 9 0.0 0.0 0.00 0.00 0.00 93 1019.0
20170727013505 60 9 0.0 0.0 0.00 0.00 0.00 93 1019.0
20170727012715 60 9 0.0 0.0 0.00 0.00 0.00 92 1018.9
20170727012006 61 9 0.0 0.0 0.00 0.00 0.00 91 1018.8
20170727011504 61 9 0.0 0.0 0.00 0.00 0.00 91 1018.9
20170727011011 61 9 0.0 0.0 0.00 0.00 0.00 91 1018.9
20170727011005 61 9 0.0 0.0 0.00 0.00 0.00 91 1019.0
20170727010004 62 9 0.0 0.0 0.00 0.00 0.00 90 1018.9
20170727005504 62 9 0.0 0.0 0.00 0.00 0.00 90 1018.9
20170727005403 62 9 0.0 0.0 0.00 0.00 0.00 90 1018.9
20170727003708 62 9 0.0 0.0 0.00 0.00 0.00 88 1018.8
20170727003505 63 9 0.0 0.0 0.00 0.00 0.00 88 1018.7
20170727002012 63 9 0.0 0.0 0.00 0.00 0.00 87 1018.8
20170727001505 64 9 0.0 0.0 0.00 0.00 0.00 87 1018.9
20170727000505 65 9 0.0 0.0 0.00 0.00 0.00 84 1018.9
20170727000405 64 9 0.0 0.0 0.00 0.00 0.00 84 1018.9
20170726235005 65 9 0.0 0.0 0.00 0.00 0.00 83 1018.9
20170726234735 65 9 0.0 0.0 0.00 0.00 0.00 82 1018.8
20170726233505 67 9 0.0 0.0 0.00 0.00 0.00 80 1018.7
20170726233016 67 9 0.0 0.0 0.00 0.00 0.00 79 1018.7
20170726233005 68 9 0.0 0.0 0.00 0.00 0.00 79 1018.7
20170726232006 70 9 0.0 0.0 0.00 0.00 0.00 78 1018.8
20170726231504 70 9 0.0 0.0 0.00 0.00 0.00 77 1018.8
20170726231407 70 9 0.0 0.0 0.00 0.00 0.00 77 1018.8
20170726225704 71 9 0.0 1.0 0.00 0.00 0.00 72 1019.0
20170726224014 71 94 0.0 0.0 0.00 0.00 0.00 68 1019.1
20170726224006 71 94 0.0 0.0 0.00 0.00 0.00 70 1019.1
20170726223505 72 94 0.0 0.0 0.00 0.00 0.00 69 1019.1
20170726223006 72 94 0.0 1.0 0.00 0.00 0.00 68 1019.1
20170726222504 72 21 0.0 1.0 0.00 0.00 0.00 68 1019.2
20170726222309 72 21 0.0 1.0 0.00 0.00 0.00 69 1019.2
20170726222005 72 291 0.0 0.0 0.00 0.00 0.00 71 1019.2
20170726221505 73 291 0.0 0.0 0.00 0.00 0.00 66 1019.2
20170726220906 73 291 0.0 0.0 0.00 0.00 0.00 63 1019.3
20170726215504 76 291 0.0 2.0 0.00 0.00 0.00 56 1019.3
20170726215015 76 282 0.0 2.0 0.00 0.00 0.00 55 1019.3
20170726214005 77 201 1.0 6.0 0.00 0.00 0.00 55 1019.4
20170726213411 76 40 0.0 5.0 0.00 0.00 0.00 55 1019.4
20170726213005 76 124 0.0 6.0 0.00 0.00 0.00 56 1019.6
20170726211705 75 202 0.0 0.0 0.00 0.00 0.00 57 1019.6
20170726211504 76 202 0.0 2.0 0.00 0.00 0.00 58 1019.6
20170726211005 77 202 0.0 2.0 0.00 0.00 0.00 55 1019.5
20170726205941 78 59 0.0 3.0 0.00 0.00 0.00 51 1019.7
20170726205005 78 61 0.0 3.0 0.00 0.00 0.00 54 1019.7
20170726204505 77 326 1.0 3.0 0.00 0.00 0.00 54 1019.6
20170726204404 77 161 0.0 1.0 0.00 0.00 0.00 54 1019.6
20170726203504 76 25 2.0 6.0 0.00 0.00 0.00 56 1019.9
20170726203005 76 236 0.0 3.0 0.00 0.00 0.00 61 1019.8
20170726202705 75 237 0.0 4.0 0.00 0.00 0.00 60 1019.8
20170726202005 76 121 0.0 0.0 0.00 0.00 0.00 64 1020.0
20170726201504 76 121 0.0 0.0 0.00 0.00 0.00 62 1020.2
20170726201006 76 121 0.0 0.0 0.00 0.00 0.00 60 1020.4
20170726200004 78 121 0.0 3.0 0.00 0.00 0.00 51 1020.4
20170726195505 78 68 0.0 6.0 0.00 0.00 0.00 54 1020.3
20170726195407 77 68 0.0 5.0 0.00 0.00 0.00 56 1020.3
20170726194006 76 324 2.0 6.0 0.00 0.00 0.00 56 1020.3
20170726193706 75 163 0.0 6.0 0.00 0.00 0.00 56 1020.4
20170726193005 75 154 0.0 3.0 0.00 0.00 0.00 59 1020.5
20170726192028 74 343 0.0 2.0 0.00 0.00 0.00 57 1020.7
20170726192005 75 343 0.0 3.0 0.00 0.00 0.00 57 1020.7
20170726190504 76 340 0.0 0.0 0.00 0.00 0.00 61 1020.9
20170726190309 75 340 0.0 0.0 0.00 0.00 0.00 58 1020.9
20170726190004 76 340 0.0 0.0 0.00 0.00 0.00 58 1021.1
20170726185504 77 340 0.0 1.0 0.00 0.00 0.00 55 1021.2
20170726185005 77 340 0.0 3.0 0.00 0.00 0.00 53 1021.0
20170726184720 76 340 0.0 4.0 0.00 0.00 0.00 53 1021.1
20170726184505 77 65 0.0 3.0 0.00 0.00 0.00 55 1021.0
20170726183504 76 199 0.0 0.0 0.00 0.00 0.00 58 1021.0
20170726183015 76 307 0.0 1.0 0.00 0.00 0.00 63 1021.0
20170726183005 76 32 0.0 0.0 0.00 0.00 0.00 64 1021.0
20170726182504 76 72 0.0 3.0 0.00 0.00 0.00 57 1021.1
20170726182005 77 72 0.0 3.0 0.00 0.00 0.00 52 1021.1
20170726181210 76 117 0.0 4.0 0.00 0.00 0.00 62 1020.9
20170726181005 76 119 0.0 3.0 0.00 0.00 0.00 56 1021.1
20170726180504 76 9 0.0 1.0 0.00 0.00 0.00 56 1021.3
20170726180004 76 9 0.0 0.0 0.00 0.00 0.00 55 1021.4
20170726175609 76 60 0.0 0.0 0.00 0.00 0.00 61 1021.3
20170726175005 76 350 0.0 6.0 0.00 0.00 0.00 51 1021.2
20170726174504 77 210 2.0 6.0 0.00 0.00 0.00 53 1021.3
20170726174005 77 186 1.0 3.0 0.00 0.00 0.00 61 1021.4
20170726173903 77 184 0.0 3.0 0.00 0.00 0.00 58 1021.4
20170726173504 77 194 0.0 1.0 0.00 0.00 0.00 55 1021.5
20170726172504 76 246 0.0 3.0 0.00 0.00 0.00 56 1021.7
20170726172204 76 242 0.0 4.0 0.00 0.00 0.00 51 1021.6
20170726170702 75 168 0.0 3.0 0.00 0.00 0.00 54 1022.0
20170726170504 76 230 0.0 2.0 0.00 0.00 0.00 57 1022.0
20170726170004 75 189 0.0 3.0 0.00 0.00 0.00 63 1022.1
20170726165504 75 31 0.0 3.0 0.00 0.00 0.00 59 1022.1
20170726165005 75 189 0.0 3.0 0.00 0.00 0.00 58 1022.1
20170726164905 74 188 0.0 3.0 0.00 0.00 0.00 59 1022.1